Hébergeur de fichiers indépendant

beaune givry.gpx

À propos

Type de fichier
Fichier GPX de 17 Ko (application/xml)
Confidentialité
Fichier public, envoyé le 4 juillet 2018 à 17:40, depuis l'adresse IP 88.162.x.x (France)
Sécurité
Ne contient aucun Virus ou Malware connus - Dernière vérification: 14 heures
Statistiques
La présente page de téléchargement a été vue 96 fois depuis l'envoi du fichier
Page de téléchargement

Aperçu du fichier


<?xml version="1.0" encoding="UTF-8" standalone="no" ?>
<gpx xmlns="http://www.topografix.com/GPX/1/1" creator="CompeGPS" version="1.1" xmlns:xsi="http://www.w3.org/2001/XMLSchema-instance" xsi:schemaLocation="http://www.topografix.com/GPX/1/1 http://www.topografix.com/GPX/1/1/gpx.xsd http://www.garmin.com/xmlschemas/GpxExtensions/v3 http://www.garmin.com/xmlschemas/GpxExtensionsv3.xsd http://www.garmin.com/xmlschemas/TrackPointExtension/v1 http://www.garmin.com/xmlschemas/TrackPointExtensionv1.xsd" xmlns:gpxtpx="http://www.garmin.com/xmlschemas/TrackPointExtension/v1">
  <metadata>
    <link href="http://www.compegps.com">
      <text>CompeGPS TEAM, SL</text>
    </link>
    <time>2018-07-04T04:08:18Z</time>
    <bounds maxlat="47.020762" maxlon="4.831712" minlat="46.780199" minlon="4.684817"/>
  </metadata>
  <trk>
    <name>beaune-givry</name>
    <trkseg>
      <trkpt lat="47.020762" lon="4.831712">
        <ele>218.0</ele>
        <time>2018-07-03T16:42:36Z</time>
      </trkpt>
      <trkpt lat="47.019958" lon="4.830392">
        <ele>219.0</ele>
        <time>2018-07-03T16:42:36Z</time>
      </trkpt>
      <trkpt lat="47.018312" lon="4.827453">
        <ele>222.3</ele>
      </trkpt>
      <trkpt lat="47.013142" lon="4.813692">
        <ele>233.0</ele>
      </trkpt>
      <trkpt lat="47.012963" lon="4.811546">
        <ele>235.8</ele>
      </trkpt>
      <trkpt lat="47.011895" lon="4.807845">
        <ele>238.6</ele>
      </trkpt>
      <trkpt lat="47.011602" lon="4.803686">
        <ele>244.4</ele>
      </trkpt>
      <trkpt lat="47.009898" lon="4.799200">
        <ele>247.7</ele>
      </trkpt>
      <trkpt lat="47.008165" lon="4.797114">
        <ele>245.4</ele>
        <time>2018-07-03T16:42:36Z</time>
      </trkpt>
      <trkpt lat="47.009221" lon="4.796142">
        <ele>247.8</ele>
      </trkpt>
      <trkpt lat="47.009740" lon="4.794982">
        <ele>249.8</ele>
        <time>2018-07-03T16:42:36Z</time>
      </trkpt>
      <trkpt lat="47.007982" lon="4.793026">
        <ele>251.0</ele>
      </trkpt>
      <trkpt lat="47.006212" lon="4.788472">
        <ele>270.2</ele>
      </trkpt>
      <trkpt lat="47.005382" lon="4.787316">
        <ele>274.9</ele>
      </trkpt>
      <trkpt lat="47.005458" lon="4.786892">
        <ele>278.6</ele>
      </trkpt>
      <trkpt lat="47.004818" lon="4.786303">
        <ele>281.6</ele>
      </trkpt>
      <trkpt lat="47.004609" lon="4.785537">
        <ele>286.5</ele>
      </trkpt>
      <trkpt lat="47.003468" lon="4.784202">
        <ele>287.0</ele>
      </trkpt>
      <trkpt lat="47.002334" lon="4.783559">
        <ele>287.4</ele>
      </trkpt>
      <trkpt lat="47.001155" lon="4.781861">
        <ele>286.7</ele>
        <time>2018-07-03T16:42:36Z</time>
      </trkpt>
      <trkpt lat="46.999515" lon="4.785036">
        <ele>266.5</ele>
        <time>2018-07-03T16:42:36Z</time>
      </trkpt>
      <trkpt lat="46.990419" lon="4.773727">
        <ele>286.1</ele>
        <time>2018-07-03T16:42:36Z</time>
      </trkpt>
      <trkpt lat="46.990167" lon="4.773732">
        <ele>283.4</ele>
      </trkpt>
      <trkpt lat="46.989561" lon="4.772586">
        <ele>283.2</ele>
      </trkpt>
      <trkpt lat="46.988703" lon="4.771693">
        <ele>279.0</ele>
        <time>2018-07-03T16:42:36Z</time>
      </trkpt>
      <trkpt lat="46.987208" lon="4.771099">
        <ele>267.7</ele>
        <time>2018-07-03T16:42:36Z</time>
      </trkpt>
      <trkpt lat="46.986361" lon="4.768748">
        <ele>268.9</ele>
        <time>2018-07-03T16:42:36Z</time>
      </trkpt>
      <trkpt lat="46.985239" lon="4.768073">
        <ele>260.1</ele>
        <time>2018-07-03T16:42:36Z</time>
      </trkpt>
      <trkpt lat="46.984246" lon="4.768597">
        <ele>252.9</ele>
      </trkpt>
      <trkpt lat="46.982481" lon="4.767991">
        <ele>246.7</ele>
        <time>2018-07-03T16:42:36Z</time>
      </trkpt>
      <trkpt lat="46.981244" lon="4.768156">
        <ele>245.0</ele>
        <time>2018-07-03T16:42:36Z</time>
      </trkpt>
      <trkpt lat="46.980621" lon="4.769111">
        <ele>243.5</ele>
        <time>2018-07-03T16:42:36Z</time>
      </trkpt>
      <trkpt lat="46.980584" lon="4.769899">
        <ele>243.6</ele>
        <time>2018-07-03T16:42:36Z</time>
      </trkpt>
      <trkpt lat="46.979376" lon="4.768973">
        <ele>245.9</ele>
        <time>2018-07-03T16:42:36Z</time>
      </trkpt>
      <trkpt lat="46.978501" lon="4.769446">
        <ele>247.9</ele>
        <time>2018-07-03T16:42:36Z</time>
      </trkpt>
      <trkpt lat="46.976520" lon="4.768636">
        <ele>244.6</ele>
        <time>2018-07-03T16:42:36Z</time>
      </trkpt>
      <trkpt lat="46.975645" lon="4.767961">
        <ele>236.3</ele>
        <time>2018-07-03T16:42:36Z</time>
      </trkpt>
      <trkpt lat="46.973573" lon="4.767117">
        <ele>235.7</ele>
        <time>2018-07-03T16:42:36Z</time>
      </trkpt>
      <trkpt lat="46.970163" lon="4.763843">
        <ele>232.3</ele>
        <time>2018-07-03T16:42:36Z</time>
      </trkpt>
      <trkpt lat="46.970394" lon="4.763472">
        <ele>232.9</ele>
        <time>2018-07-03T16:42:36Z</time>
      </trkpt>
      <trkpt lat="46.970348" lon="4.762931">
        <ele>233.6</ele>
        <time>2018-07-03T16:42:36Z</time>
      </trkpt>
      <trkpt lat="46.968598" lon="4.760602">
        <ele>242.6</ele>
        <time>2018-07-03T16:42:36Z</time>
      </trkpt>
      <trkpt lat="46.966110" lon="4.760704">
        <ele>236.6</ele>
        <time>2018-07-03T16:42:36Z</time>
      </trkpt>
      <trkpt lat="46.964616" lon="4.757291">
        <ele>246.0</ele>
      </trkpt>
      <trkpt lat="46.963140" lon="4.755495">
        <ele>254.6</ele>
        <time>2018-07-03T16:42:36Z</time>
      </trkpt>
      <trkpt lat="46.957666" lon="4.750175">
        <ele>256.2</ele>
        <time>2018-07-03T16:42:36Z</time>
      </trkpt>
      <trkpt lat="46.955641" lon="4.747521">
        <ele>264.4</ele>
        <time>2018-07-03T16:42:36Z</time>
      </trkpt>
      <trkpt lat="46.953003" lon="4.745291">
        <ele>256.7</ele>
        <time>2018-07-03T16:42:36Z</time>
      </trkpt>
      <trkpt lat="46.947057" lon="4.740771">
        <ele>251.3</ele>
        <time>2018-07-03T16:42:36Z</time>
      </trkpt>
      <trkpt lat="46.940766" lon="4.735816">
        <ele>236.9</ele>
        <time>2018-07-03T16:42:36Z</time>
      </trkpt>
      <trkpt lat="46.940141" lon="4.735559">
        <ele>237.6</ele>
        <time>2018-07-03T16:42:36Z</time>
      </trkpt>
      <trkpt lat="46.938586" lon="4.733664">
        <ele>240.2</ele>
        <time>2018-07-03T16:42:36Z</time>
      </trkpt>
      <trkpt lat="46.937689" lon="4.732390">
        <ele>242.6</ele>
        <time>2018-07-03T16:42:36Z</time>
      </trkpt>
      <trkpt lat="46.936707" lon="4.732185">
        <ele>241.5</ele>
        <time>2018-07-03T16:42:36Z</time>
      </trkpt>
      <trkpt lat="46.935389" lon="4.730994">
        <ele>241.8</ele>
        <time>2018-07-03T16:42:36Z</time>
      </trkpt>
      <trkpt lat="46.931994" lon="4.726023">
        <ele>245.9</ele>
        <time>2018-07-03T16:42:36Z</time>
      </trkpt>
      <trkpt lat="46.930535" lon="4.725324">
        <ele>244.5</ele>
        <time>2018-07-03T16:42:36Z</time>
      </trkpt>
      <trkpt lat="46.928581" lon="4.724500">
        <ele>243.7</ele>
        <time>2018-07-03T16:42:36Z</time>
      </trkpt>
      <trkpt lat="46.927685" lon="4.723245">
        <ele>243.8</ele>
        <time>2018-07-03T16:42:36Z</time>
      </trkpt>
      <trkpt lat="46.927343" lon="4.722343">
        <ele>244.5</ele>
        <time>2018-07-03T16:42:36Z</time>
      </trkpt>
      <trkpt lat="46.926755" lon="4.721175">
        <ele>247.0</ele>
        <time>2018-07-03T16:42:36Z</time>
      </trkpt>
      <trkpt lat="46.922560" lon="4.717533">
        <ele>255.8</ele>
        <time>2018-07-03T16:42:36Z</time>
      </trkpt>
      <trkpt lat="46.921674" lon="4.716870">
        <ele>252.4</ele>
        <time>2018-07-03T16:42:36Z</time>
      </trkpt>
      <trkpt lat="46.919630" lon="4.717798">
        <ele>239.3</ele>
        <time>2018-07-03T16:42:36Z</time>
      </trkpt>
      <trkpt lat="46.914092" lon="4.710031">
        <ele>224.7</ele>
        <time>2018-07-03T16:42:36Z</time>
      </trkpt>
      <trkpt lat="46.913940" lon="4.708976">
        <ele>229.5</ele>
      </trkpt>
      <trkpt lat="46.913180" lon="4.708028">
        <ele>228.6</ele>
        <time>2018-07-03T16:42:36Z</time>
      </trkpt>
      <trkpt lat="46.911426" lon="4.700684">
        <ele>226.7</ele>
        <time>2018-07-03T16:42:36Z</time>
      </trkpt>
      <trkpt lat="46.910235" lon="4.697529">
        <ele>219.4</ele>
        <time>2018-07-03T16:42:36Z</time>
      </trkpt>
      <trkpt lat="46.907759" lon="4.694530">
        <ele>217.5</ele>
        <time>2018-07-03T16:42:36Z</time>
      </trkpt>
      <trkpt lat="46.905087" lon="4.695834">
        <ele>213.0</ele>
        <time>2018-07-03T16:42:36Z</time>
      </trkpt>
      <trkpt lat="46.901738" lon="4.692079">
        <ele>218.7</ele>
        <time>2018-07-03T16:42:36Z</time>
      </trkpt>
      <trkpt lat="46.901203" lon="4.692340">
        <ele>221.9</ele>
        <time>2018-07-03T16:42:36Z</time>
      </trkpt>
      <trkpt lat="46.903642" lon="4.696605">
        <ele>231.2</ele>
        <time>2018-07-03T16:42:36Z</time>
      </trkpt>
      <trkpt lat="46.904264" lon="4.699193">
        <ele>229.4</ele>
        <time>2018-07-03T16:42:36Z</time>
      </trkpt>
      <trkpt lat="46.903907" lon="4.702296">
        <ele>232.8</ele>
        <time>2018-07-03T16:42:36Z</time>
      </trkpt>
      <trkpt lat="46.904062" lon="4.704634">
        <ele>228.1</ele>
        <time>2018-07-03T16:42:36Z</time>
      </trkpt>
      <trkpt lat="46.904014" lon="4.705879">
        <ele>225.8</ele>
        <time>2018-07-03T16:42:36Z</time>
      </trkpt>
      <trkpt lat="46.903373" lon="4.706376">
        <ele>229.5</ele>
        <time>2018-07-03T16:42:36Z</time>
      </trkpt>
      <trkpt lat="46.902537" lon="4.706537">
        <ele>235.1</ele>
        <time>2018-07-03T16:42:36Z</time>
      </trkpt>
      <trkpt lat="46.900927" lon="4.709016">
        <ele>237.2</ele>
        <time>2018-07-03T16:42:36Z</time>
      </trkpt>
      <trkpt lat="46.899754" lon="4.709467">
        <ele>245.9</ele>
        <time>2018-07-03T16:42:36Z</time>
      </trkpt>
      <trkpt lat="46.898976" lon="4.709006">
        <ele>248.0</ele>
        <time>2018-07-03T16:42:36Z</time>
      </trkpt>
      <trkpt lat="46.898059" lon="4.708736">
        <ele>246.1</ele>
        <time>2018-07-03T16:42:36Z</time>
      </trkpt>
      <trkpt lat="46.897104" lon="4.708136">
        <ele>239.3</ele>
        <time>2018-07-03T16:42:36Z</time>
      </trkpt>
      <trkpt lat="46.896428" lon="4.708205">
        <ele>236.2</ele>
        <time>2018-07-03T16:42:36Z</time>
      </trkpt>
      <trkpt lat="46.895390" lon="4.707240">
        <ele>238.1</ele>
      </trkpt>
      <trkpt lat="46.894117" lon="4.706790">
        <ele>240.6</ele>
      </trkpt>
      <trkpt lat="46.892806" lon="4.704861">
        <ele>249.2</ele>
        <time>2018-07-03T16:42:36Z</time>
      </trkpt>
      <trkpt lat="46.891470" lon="4.703096">
        <ele>255.4</ele>
      </trkpt>
      <trkpt lat="46.887779" lon="4.700964">
        <ele>276.9</ele>
        <time>2018-07-03T16:42:36Z</time>
      </trkpt>
      <trkpt lat="46.886433" lon="4.698608">
        <ele>291.6</ele>
        <time>2018-07-03T16:42:36Z</time>
      </trkpt>
      <trkpt lat="46.886931" lon="4.697350">
        <ele>307.7</ele>
      </trkpt>
      <trkpt lat="46.886341" lon="4.696504">
        <ele>312.4</ele>
      </trkpt>
      <trkpt lat="46.881647" lon="4.693902">
        <ele>329.0</ele>
        <time>2018-07-03T16:42:36Z</time>
      </trkpt>
      <trkpt lat="46.881297" lon="4.694511">
        <ele>325.0</ele>
      </trkpt>
      <trkpt lat="46.875699" lon="4.692067">
        <ele>310.7</ele>
        <time>2018-07-03T16:42:36Z</time>
      </trkpt>
      <trkpt lat="46.875082" lon="4.692565">
        <ele>304.2</ele>
      </trkpt>
      <trkpt lat="46.874517" lon="4.692639">
        <ele>304.7</ele>
      </trkpt>
      <trkpt lat="46.870123" lon="4.688575">
        <ele>315.5</ele>
        <time>2018-07-03T16:42:36Z</time>
      </trkpt>
      <trkpt lat="46.865965" lon="4.687643">
        <ele>323.1</ele>
        <time>2018-07-03T16:42:36Z</time>
      </trkpt>
      <trkpt lat="46.860920" lon="4.686402">
        <ele>335.1</ele>
      </trkpt>
      <trkpt lat="46.855045" lon="4.685392">
        <ele>351.9</ele>
      </trkpt>
      <trkpt lat="46.848712" lon="4.685903">
        <ele>382.1</ele>
        <time>2018-07-03T16:42:36Z</time>
      </trkpt>
      <trkpt lat="46.847220" lon="4.685150">
        <ele>377.7</ele>
      </trkpt>
      <trkpt lat="46.847114" lon="4.684817">
        <ele>374.2</ele>
        <time>2018-07-03T16:42:36Z</time>
      </trkpt>
      <trkpt lat="46.846455" lon="4.685116">
        <ele>367.8</ele>
        <time>2018-07-03T16:42:36Z</time>
      </trkpt>
      <trkpt lat="46.846921" lon="4.686547">
        <ele>374.7</ele>
      </trkpt>
      <trkpt lat="46.846783" lon="4.687820">
        <ele>367.4</ele>
        <time>2018-07-03T16:42:36Z</time>
      </trkpt>
      <trkpt lat="46.849068" lon="4.689395">
        <ele>352.3</ele>
        <time>2018-07-03T16:42:36Z</time>
      </trkpt>
      <trkpt lat="46.849956" lon="4.691074">
        <ele>341.2</ele>
      </trkpt>
      <trkpt lat="46.849687" lon="4.693227">
        <ele>329.1</ele>
      </trkpt>
      <trkpt lat="46.850720" lon="4.697667">
        <ele>305.9</ele>
      </trkpt>
      <trkpt lat="46.850748" lon="4.702883">
        <ele>275.8</ele>
        <time>2018-07-03T16:42:36Z</time>
      </trkpt>
      <trkpt lat="46.853225" lon="4.707381">
        <ele>282.3</ele>
        <time>2018-07-03T16:42:36Z</time>
      </trkpt>
      <trkpt lat="46.854931" lon="4.713825">
        <ele>263.1</ele>
      </trkpt>
      <trkpt lat="46.858100" lon="4.719410">
        <ele>270.8</ele>
      </trkpt>
      <trkpt lat="46.862584" lon="4.724529">
        <ele>262.5</ele>
        <time>2018-07-03T16:42:36Z</time>
      </trkpt>
      <trkpt lat="46.864079" lon="4.728401">
        <ele>246.8</ele>
      </trkpt>
      <trkpt lat="46.864219" lon="4.729227">
        <ele>241.4</ele>
        <time>2018-07-03T16:42:36Z</time>
      </trkpt>
      <trkpt lat="46.864088" lon="4.730107">
        <ele>244.2</ele>
      </trkpt>
      <trkpt lat="46.866883" lon="4.734201">
        <ele>257.1</ele>
        <time>2018-07-03T16:42:36Z</time>
      </trkpt>
      <trkpt lat="46.868134" lon="4.734618">
        <ele>256.1</ele>
        <time>2018-07-03T16:42:36Z</time>
      </trkpt>
      <trkpt lat="46.868723" lon="4.735497">
        <ele>260.2</ele>
      </trkpt>
      <trkpt lat="46.868345" lon="4.737448">
        <ele>248.1</ele>
      </trkpt>
      <trkpt lat="46.869036" lon="4.738792">
        <ele>238.4</ele>
        <time>2018-07-03T16:42:36Z</time>
      </trkpt>
      <trkpt lat="46.868679" lon="4.741893">
        <ele>240.6</ele>
      </trkpt>
      <trkpt lat="46.868382" lon="4.744275">
        <ele>239.0</ele>
      </trkpt>
      <trkpt lat="46.867883" lon="4.744449">
        <ele>237.0</ele>
      </trkpt>
      <trkpt lat="46.867584" lon="4.745814">
        <ele>230.0</ele>
      </trkpt>
      <trkpt lat="46.866095" lon="4.748142">
        <ele>220.4</ele>
      </trkpt>
      <trkpt lat="46.865171" lon="4.752497">
        <ele>213.5</ele>
        <time>2018-07-03T16:42:36Z</time>
      </trkpt>
      <trkpt lat="46.855739" lon="4.752665">
        <ele>224.5</ele>
      </trkpt>
      <trkpt lat="46.853362" lon="4.754428">
        <ele>227.3</ele>
      </trkpt>
      <trkpt lat="46.849020" lon="4.754364">
        <ele>219.3</ele>
      </trkpt>
      <trkpt lat="46.845437" lon="4.752498">
        <ele>217.6</ele>
      </trkpt>
      <trkpt lat="46.829421" lon="4.752240">
        <ele>226.0</ele>
      </trkpt>
      <trkpt lat="46.816870" lon="4.751973">
        <ele>209.1</ele>
      </trkpt>
      <trkpt lat="46.815635" lon="4.751885">
        <ele>205.3</ele>
      </trkpt>
      <trkpt lat="46.809073" lon="4.753591">
        <ele>207.3</ele>
      </trkpt>
      <trkpt lat="46.807779" lon="4.753074">
        <ele>202.1</ele>
      </trkpt>
      <trkpt lat="46.798083" lon="4.751886">
        <ele>234.5</ele>
        <time>2018-07-03T16:42:36Z</time>
      </trkpt>
      <trkpt lat="46.782165" lon="4.742723">
        <ele>219.7</ele>
        <time>2018-07-03T16:42:36Z</time>
      </trkpt>
      <trkpt lat="46.780199" lon="4.740997">
        <ele>222.0</ele>
      </trkpt>
      <trkpt lat="46.780768" lon="4.739614">
        <ele>223.0</ele>
      </trkpt>
      <trkpt lat="46.781536" lon="4.740500">
        <ele>221.9</ele>
        <time>2018-07-03T16:42:36Z</time>
      </trkpt>
    </trkseg>
  </trk>
</gpx>



Partager le fichier

Télécharger beaune-givry.gpx

Télécharger le fichier (17 Ko)